DW1806 Weather Reports


Display with metric or nautical units.
time (UTC)temp
F
wind
direction
speed
MPH
gust
MPH
rain 1hr
in
rain 24hr
in
rain mn
in
humidity
%
barometer
mb
20260510153559 52 264 0.0 0.0 0.00 0.00 0.01 45 1014.5
20260510153102 52 291 0.0 0.0 0.00 0.00 0.01 42 1014.7
20260510152558 53 289 0.0 0.0 0.00 0.00 0.01 45 1014.6
20260510152058 53 265 0.0 0.0 0.00 0.00 0.01 44 1014.5
20260510151557 52 290 0.0 0.0 0.00 0.00 0.01 46 1014.5
20260510151055 52 240 0.0 0.0 0.00 0.00 0.01 47 1014.5
20260510150557 52 321 0.0 0.0 0.00 0.00 0.01 47 1014.5
20260510150120 51 273 0.0 0.0 0.00 0.00 0.01 52 1014.3
20260510145553 51 267 0.0 0.0 0.00 0.00 0.01 49 1014.3
20260510145052 51 271 0.0 0.0 0.00 0.00 0.01 51 1014.3
20260510144553 52 254 0.0 0.0 0.00 0.00 0.01 52 1014.2
20260510144051 51 294 0.0 0.0 0.00 0.00 0.01 52 1014.1
20260510143553 51 313 0.0 0.0 0.00 0.00 0.01 53 1014.0
20260510143050 51 317 0.0 0.0 0.00 0.00 0.01 53 1013.9
20260510142549 51 262 0.0 0.0 0.00 0.00 0.01 54 1013.8
20260510142049 50 342 0.0 0.0 0.00 0.00 0.01 53 1013.8
20260510141548 50 294 0.0 0.0 0.00 0.00 0.01 54 1013.7
20260510141047 50 288 0.0 0.0 0.00 0.00 0.01 53 1013.7
20260510140548 50 56 0.0 0.0 0.00 0.00 0.01 53 1013.7
20260510140046 50 260 0.0 0.0 0.00 0.00 0.01 53 1013.7
20260510135546 50 279 0.0 0.0 0.00 0.00 0.01 55 1013.5
20260510135047 49 311 0.0 0.0 0.00 0.00 0.01 53 1013.5
20260510134546 49 263 0.0 0.0 0.00 0.00 0.01 53 1013.5
20260510134044 49 294 0.0 0.0 0.00 0.00 0.01 56 1013.4
20260510133547 49 253 0.0 0.0 0.00 0.00 0.01 57 1013.3
20260510133045 49 269 0.0 0.0 0.00 0.00 0.01 58 1013.2
20260510132543 49 314 0.0 0.0 0.00 0.00 0.01 57 1013.1
20260510132043 49 333 0.0 0.0 0.00 0.00 0.01 60 1013.1
20260510131542 49 239 0.0 0.0 0.00 0.00 0.01 59 1013.1
20260510131040 48 325 0.0 0.0 0.00 0.00 0.01 59 1013.0
20260510130540 49 284 0.0 0.0 0.00 0.00 0.01 60 1012.9
20260510130040 48 312 0.0 0.0 0.00 0.00 0.01 60 1012.8
20260510125538 48 296 0.0 0.0 0.00 0.00 0.01 61 1012.8
20260510125038 48 267 0.0 0.0 0.00 0.00 0.01 61 1012.7
20260510124539 48 297 0.0 0.0 0.00 0.00 0.01 62 1012.7
20260510124039 47 316 0.0 0.0 0.00 0.00 0.01 63 1012.7
20260510123538 47 281 0.0 0.0 0.00 0.00 0.01 62 1012.7
20260510123038 47 257 0.0 0.0 0.00 0.00 0.01 62 1012.7
20260510122537 47 288 0.0 0.0 0.00 0.00 0.01 64 1012.6
20260510122037 47 279 0.0 0.0 0.00 0.00 0.01 65 1012.6
20260510121535 47 263 0.0 0.0 0.00 0.00 0.01 65 1012.5
20260510121035 47 271 0.0 0.0 0.00 0.00 0.01 65 1012.4
20260510120535 47 240 0.0 0.0 0.00 0.00 0.01 65 1012.3
20260510120034 47 252 0.0 0.0 0.00 0.00 0.01 67 1012.2
20260510115533 47 267 0.0 0.0 0.00 0.00 0.01 66 1012.1
20260510115035 47 267 0.0 0.0 0.00 0.00 0.01 67 1012.1
20260510114532 47 256 0.0 0.0 0.00 0.00 0.01 66 1012.0
20260510114031 46 262 0.0 0.0 0.00 0.00 0.01 67 1011.8
20260510113530 46 267 0.0 0.0 0.00 0.00 0.01 67 1011.7
20260510113030 46 267 0.0 0.0 0.00 0.00 0.01 68 1011.5
20260510112534 46 254 0.0 0.0 0.00 0.00 0.01 69 1011.5
20260510112029 46 253 0.0 0.0 0.00 0.00 0.01 69 1011.4
20260510111528 46 265 0.0 0.0 0.00 0.00 0.01 69 1011.4
20260510111027 46 270 0.0 0.0 0.00 0.00 0.01 70 1011.3
20260510110527 46 270 0.0 0.0 0.00 0.00 0.01 69 1011.2
20260510110026 46 270 0.0 0.0 0.00 0.00 0.01 69 1011.0
20260510105525 46 274 0.0 0.0 0.00 0.00 0.01 69 1010.9
20260510105024 46 265 0.0 0.0 0.00 0.00 0.01 69 1010.8
20260510104524 46 271 0.0 0.0 0.00 0.00 0.01 70 1010.6
20260510104022 46 271 0.0 0.0 0.00 0.00 0.01 69 1010.6
20260510103522 46 271 0.0 0.0 0.00 0.00 0.01 69 1010.5
20260510103024 46 293 0.0 0.0 0.00 0.00 0.01 69 1010.2
20260510102522 46 293 0.0 0.0 0.00 0.00 0.01 69 1010.3
20260510102024 46 289 0.0 0.0 0.00 0.00 0.01 69 1010.2
20260510101519 46 282 0.0 0.0 0.00 0.00 0.01 71 1010.1
20260510101019 46 317 0.0 0.0 0.00 0.00 0.01 70 1009.7
20260510100517 46 317 0.0 0.0 0.00 0.00 0.01 70 1009.7
20260510100017 46 302 0.0 0.0 0.00 0.00 0.01 70 1009.5
20260510095521 46 287 0.0 0.0 0.00 0.00 0.01 70 1009.5
20260510095017 46 291 0.0 0.0 0.00 0.00 0.01 70 1009.4
20260510094533 47 290 0.0 0.0 0.00 0.00 0.01 71 1009.2
20260510094014 47 284 0.0 0.0 0.00 0.00 0.01 73 1009.1
20260510093514 47 270 0.0 0.0 0.00 0.00 0.01 74 1009.3
20260510093014 47 301 0.0 0.0 0.00 0.00 0.01 75 1009.3
20260510092520 47 265 0.0 0.0 0.00 0.00 0.01 76 1009.2
20260510092013 47 291 0.0 0.0 0.00 0.00 0.01 76 1009.1
20260510091513 47 291 0.0 0.0 0.00 0.00 0.01 76 1009.0
20260510091013 47 291 0.0 0.0 0.00 0.00 0.01 76 1009.1
20260510090513 47 291 0.0 0.0 0.00 0.00 0.01 76 1009.0
20260510090013 47 291 0.0 0.0 0.00 0.00 0.01 76 1009.0
20260510085512 47 322 0.0 0.0 0.00 0.00 0.01 75 1009.0
20260510085011 47 322 0.0 0.0 0.00 0.00 0.01 74 1008.5
20260510084517 47 322 0.0 0.0 0.00 0.00 0.01 73 1008.4
20260510084010 48 322 0.0 0.0 0.00 0.00 0.01 72 1008.3
20260510083509 48 318 0.0 0.0 0.00 0.00 0.01 73 1008.4
20260510083007 48 292 0.0 0.0 0.00 0.00 0.01 72 1008.5
20260510082506 49 262 0.0 0.0 0.00 0.00 0.01 72 1008.5
20260510082010 49 262 0.0 0.0 0.00 0.00 0.01 71 1008.4
20260510081507 49 262 0.0 0.0 0.00 0.00 0.00 72 1008.5
20260510081005 49 292 0.0 0.0 0.00 0.00 0.00 73 1008.8
20260510080504 49 322 0.0 0.0 0.00 0.00 0.00 73 1008.3
20260510080007 49 298 0.0 0.0 0.00 0.00 0.00 74 1008.3
20260510075502 50 298 0.0 0.0 0.00 0.00 0.00 74 1008.2
20260510075005 50 277 0.0 0.0 0.00 0.00 0.00 76 1008.3
20260510074502 50 286 0.0 0.0 0.00 0.00 0.00 75 1008.5
20260510074100 50 286 0.0 0.0 0.00 0.00 0.00 75 1008.2
20260510073600 50 328 0.0 0.0 0.00 0.00 0.00 75 1007.8
20260510073100 50 346 0.0 0.0 0.00 0.00 0.00 76 1007.6
20260510072600 50 302 0.0 0.0 0.00 0.00 0.00 76 1008.2
20260510072057 50 276 0.0 0.0 0.00 0.00 0.00 78 1007.7
20260510071556 51 342 0.0 0.0 0.00 0.00 0.00 80 1007.5
20260510071056 51 329 0.0 0.0 0.00 0.00 0.00 81 1007.5
20260510070557 51 329 0.0 0.0 0.00 0.00 0.00 82 1007.3
20260510070054 51 287 0.0 0.0 0.00 0.00 0.00 83 1007.7
20260510065554 51 320 0.0 0.0 0.00 0.00 0.00 84 1007.4
20260510065051 51 326 0.0 0.0 0.00 0.00 0.00 85 1007.2
20260510064559 51 327 0.0 0.0 0.00 0.00 0.00 86 1007.0
20260510064051 51 327 0.0 0.0 0.00 0.00 0.00 86 1007.2
20260510063551 51 327 0.0 0.0 0.00 0.00 0.00 86 1007.2
20260510063051 51 327 0.0 0.0 0.00 0.00 0.00 87 1007.2
20260510062551 51 327 0.0 0.0 0.00 0.00 0.00 88 1006.9
20260510062049 51 327 0.0 0.0 0.00 0.00 0.00 88 1006.8
20260510061548 51 328 0.0 0.0 0.00 0.00 0.00 88 1006.8
20260510061049 51 348 0.0 0.0 0.00 0.00 0.00 89 1006.9
20260510060551 51 298 0.0 0.0 0.00 0.00 0.00 89 1006.9
20260510060047 51 298 0.0 0.0 0.00 0.00 0.00 89 1006.8
20260510055547 52 302 0.0 0.0 0.00 0.00 0.00 89 1006.8
20260510055047 52 302 0.0 0.0 0.00 0.00 0.00 89 1006.9
20260510054547 52 251 0.0 0.0 0.00 0.00 0.00 89 1007.0
20260510054046 51 259 0.0 0.0 0.00 0.00 0.00 89 1006.8
20260510053545 51 249 0.0 0.0 0.00 0.00 0.00 89 1006.7
20260510053045 51 249 0.0 0.0 0.00 0.00 0.00 89 1006.8
20260510052547 52 249 0.0 0.0 0.00 0.00 0.00 89 1006.5
20260510052044 51 249 0.0 0.0 0.00 0.00 0.00 89 1006.6
20260510051543 51 249 0.0 0.0 0.00 0.00 0.00 89 1006.3
20260510051044 51 249 0.0 0.0 0.00 0.00 0.00 89 1006.3
20260510050541 52 249 0.0 0.0 0.00 0.00 0.00 89 1006.2
20260510050041 52 249 0.0 0.0 0.00 0.00 0.00 88 1006.1
20260510045542 52 249 0.0 0.0 0.00 0.00 0.00 89 1006.0
20260510045040 52 249 0.0 0.0 0.00 0.00 0.00 89 1005.9
20260510044544 52 257 0.0 0.0 0.00 0.00 0.00 89 1006.0
20260510044040 52 269 0.0 0.0 0.00 0.00 0.00 89 1006.1
20260510043539 51 213 0.0 0.0 0.00 0.00 0.00 89 1005.9
20260510043038 51 213 0.0 0.0 0.00 0.00 0.00 89 1005.7
20260510042541 51 213 0.0 0.0 0.00 0.00 0.00 88 1005.6
20260510042036 51 213 0.0 0.0 0.00 0.00 0.00 88 1005.4
20260510041541 52 213 0.0 0.0 0.00 0.00 0.00 88 1005.2
20260510041035 52 213 0.0 0.0 0.00 0.00 0.00 88 1005.3
20260510040535 52 213 0.0 0.0 0.00 0.00 0.00 88 1005.0
20260510040033 52 213 0.0 0.0 0.00 0.00 0.00 88 1004.8
20260510035534 52 213 0.0 0.0 0.00 0.00 0.16 88 1005.0
20260510035033 52 213 0.0 0.0 0.00 0.00 0.16 88 1004.9
20260510034533 52 213 0.0 0.0 0.00 0.00 0.16 88 1004.8
20260510034033 52 213 0.0 0.0 0.00 0.00 0.16 88 1005.0
20260510033532 52 213 0.0 0.0 0.00 0.00 0.16 88 1005.0
20260510033032 52 213 0.0 0.0 0.00 0.00 0.16 88 1004.9
20260510032534 52 229 0.0 0.0 0.00 0.00 0.16 88 1005.2
20260510032032 52 232 0.0 0.0 0.00 0.00 0.16 87 1005.1
20260510031532 52 232 0.0 0.0 0.00 0.00 0.16 87 1005.0
20260510031032 52 232 0.0 0.0 0.00 0.00 0.16 87 1005.1
20260510030531 52 232 0.0 0.0 0.00 0.00 0.16 87 1005.0
20260510030037 52 232 0.0 0.0 0.00 0.00 0.16 86 1005.0
20260510025531 53 232 0.0 0.0 0.00 0.00 0.16 86 1004.9
20260510025032 53 232 0.0 0.0 0.00 0.00 0.16 86 1004.9
20260510024532 53 232 0.0 0.0 0.00 0.00 0.16 86 1004.9
20260510024031 53 228 0.0 0.0 0.00 0.00 0.16 86 1004.8
20260510023531 53 228 0.0 0.0 0.00 0.00 0.16 86 1004.7
20260510023031 53 216 0.0 0.0 0.00 0.00 0.16 86 1004.6
20260510022533 53 214 0.0 0.0 0.00 0.00 0.16 86 1004.5
20260510022031 53 190 0.0 0.0 0.00 0.00 0.16 86 1004.2
20260510021531 53 211 0.0 0.0 0.00 0.00 0.16 86 1004.3
20260510021029 53 195 0.0 0.0 0.00 0.00 0.16 85 1004.2
20260510020530 54 210 0.0 0.0 0.00 0.00 0.16 86 1004.3
20260510020030 53 237 0.0 0.0 0.00 0.00 0.16 86 1004.3
20260510015530 53 213 0.0 0.0 0.00 0.00 0.16 87 1004.3
20260510015029 53 212 0.0 0.0 0.00 0.00 0.16 87 1004.3
20260510014529 53 171 0.0 0.0 0.00 0.00 0.16 87 1004.3
20260510014030 53 219 0.0 0.0 0.00 0.00 0.16 87 1004.2
20260510013529 53 196 0.0 0.0 0.00 0.00 0.16 87 1004.2
20260510013031 53 219 0.0 0.0 0.00 0.00 0.16 88 1004.1
20260510012528 53 204 0.0 0.0 0.00 0.00 0.16 88 1004.1
20260510012029 52 219 0.0 0.0 0.00 0.00 0.16 88 1004.1
20260510011528 52 190 0.0 0.0 0.00 0.00 0.16 88 1004.0
20260510011028 52 200 0.0 0.0 0.00 0.00 0.16 88 1004.0
20260510010528 52 235 0.0 0.0 0.00 0.00 0.16 88 1003.9
20260510010027 52 215 0.0 0.0 0.00 0.00 0.16 88 1003.9
20260510005527 52 219 0.0 0.0 0.00 0.00 0.16 88 1003.9
20260510005026 52 234 0.0 0.0 0.00 0.00 0.16 88 1003.7
20260510004527 52 236 0.0 0.0 0.00 0.00 0.16 88 1003.4
20260510004027 52 188 0.0 0.0 0.00 0.00 0.16 87 1003.3
20260510003527 52 159 0.0 0.0 0.00 0.00 0.16 87 1003.2
20260510003035 52 187 0.0 0.0 0.00 0.00 0.16 87 1003.2
20260510002526 52 227 0.0 0.0 0.00 0.00 0.16 87 1003.2
20260510002026 52 172 0.0 0.0 0.00 0.00 0.16 88 1003.1
20260510001526 52 219 0.0 0.0 0.00 0.00 0.16 88 1003.3
20260510001026 52 179 0.0 0.0 0.00 0.00 0.16 88 1003.3
20260510000525 52 163 0.0 0.0 0.00 0.00 0.16 88 1003.3
20260510000026 52 171 0.0 0.0 0.00 0.00 0.16 88 1003.4
20260509235525 52 168 0.0 0.0 0.00 0.00 0.16 88 1003.3
20260509235025 52 174 0.0 0.0 0.00 0.00 0.16 87 1003.1
20260509234531 52 163 0.0 0.0 0.00 0.00 0.16 87 1003.0
20260509234025 52 212 0.0 0.0 0.00 0.00 0.16 87 1003.2
20260509233524 52 216 0.0 0.0 0.00 0.00 0.15 86 1003.5
20260509233025 52 238 0.0 0.0 0.00 0.00 0.14 86 1004.0
20260509232524 52 259 0.0 0.0 0.00 0.00 0.14 86 1003.9
20260509232028 52 261 0.0 0.0 0.00 0.00 0.12 85 1004.0
20260509231523 52 309 0.0 0.0 0.00 0.00 0.12 85 1004.1
20260509231023 53 278 0.0 0.0 0.00 0.00 0.10 84 1004.0
20260509230523 53 260 0.0 0.0 0.00 0.00 0.09 82 1004.2
20260509230023 55 282 0.0 0.0 0.00 0.00 0.07 79 1004.6
20260509225523 59 295 0.0 0.0 0.00 0.00 0.02 73 1004.0
20260509225022 60 223 0.0 0.0 0.00 0.00 0.00 73 1002.1
20260509224522 61 186 0.0 0.0 0.00 0.00 0.00 72 1002.0
20260509224023 62 208 0.0 0.0 0.00 0.00 0.00 69 1001.5
20260509223523 62 201 0.0 0.0 0.00 0.00 0.00 68 1001.3
20260509223023 62 200 0.0 0.0 0.00 0.00 0.00 68 1001.2
20260509222522 62 219 0.0 0.0 0.00 0.00 0.00 67 1001.2
20260509222022 62 169 0.0 0.0 0.00 0.00 0.00 67 1001.1
20260509221522 62 173 0.0 0.0 0.00 0.00 0.00 67 1001.0
20260509221020 62 172 0.0 0.0 0.00 0.00 0.00 67 1001.2
20260509220519 62 161 0.0 0.0 0.00 0.00 0.00 66 1001.2
20260509220025 63 159 0.0 0.0 0.00 0.00 0.00 66 1001.3
20260509215519 63 150 0.0 0.0 0.00 0.00 0.00 66 1001.3
20260509215021 63 182 0.0 0.0 0.00 0.00 0.00 66 1001.5
20260509214519 63 234 0.0 0.0 0.00 0.00 0.00 65 1001.5
20260509214019 63 169 0.0 0.0 0.00 0.00 0.00 65 1001.4
20260509213519 63 158 0.0 0.0 0.00 0.00 0.00 65 1001.4
20260509213018 63 171 0.0 0.0 0.00 0.00 0.00 65 1001.3
20260509212518 63 211 0.0 0.0 0.00 0.00 0.00 65 1001.5
20260509212020 63 210 0.0 0.0 0.00 0.00 0.00 65 1001.4
20260509211516 63 203 0.0 0.0 0.00 0.00 0.00 65 1001.6
20260509211016 63 224 0.0 0.0 0.00 0.00 0.00 65 1001.9
20260509210518 63 204 0.0 0.0 0.00 0.00 0.00 66 1002.0
20260509210015 63 223 0.0 0.0 0.00 0.00 0.00 66 1001.9
20260509205515 63 195 0.0 0.0 0.00 0.00 0.00 66 1001.8
20260509205014 63 229 0.0 0.0 0.00 0.00 0.00 67 1001.9
20260509204514 63 186 0.0 0.0 0.00 0.00 0.00 67 1002.0
20260509204015 63 162 0.0 0.0 0.00 0.00 0.00 67 1002.0
20260509203515 63 146 0.0 0.0 0.00 0.00 0.00 67 1001.9
20260509203014 63 211 0.0 0.0 0.00 0.00 0.00 66 1001.9
20260509202513 63 176 0.0 0.0 0.00 0.00 0.00 66 1002.1
20260509202015 63 249 0.0 0.0 0.00 0.00 0.00 64 1002.1
20260509201513 64 208 0.0 0.0 0.00 0.00 0.00 64 1002.1
20260509201015 64 216 0.0 0.0 0.00 0.00 0.00 63 1002.1
20260509200513 65 193 0.0 0.0 0.00 0.00 0.00 63 1002.2
20260509200012 65 210 0.0 0.0 0.00 0.00 0.00 63 1002.1
20260509195513 65 252 0.0 0.0 0.00 0.00 0.00 62 1002.2
20260509195012 65 274 0.0 0.0 0.00 0.00 0.00 62 1002.2
20260509194516 65 235 0.0 0.0 0.00 0.00 0.00 62 1002.1
20260509194012 65 186 0.0 0.0 0.00 0.00 0.00 62 1001.9
20260509193515 65 191 0.0 0.0 0.00 0.00 0.00 63 1002.2
20260509193010 65 236 0.0 0.0 0.00 0.00 0.00 64 1002.5
20260509192510 64 217 0.0 0.0 0.00 0.00 0.00 63 1002.7
20260509192012 64 265 0.0 0.0 0.00 0.00 0.00 63 1002.6
20260509191513 64 268 0.0 0.0 0.00 0.00 0.00 63 1002.7
20260509191007 64 258 0.0 0.0 0.00 0.00 0.00 64 1002.8
20260509190505 63 224 0.0 0.0 0.00 0.00 0.00 63 1002.9
20260509190014 63 211 0.0 0.0 0.00 0.00 0.00 63 1003.0
20260509185505 64 197 0.0 0.0 0.00 0.00 0.00 62 1003.0
20260509185004 64 182 0.0 0.0 0.00 0.00 0.00 65 1003.0
20260509184503 63 236 0.0 0.0 0.00 0.00 0.00 66 1003.2
20260509184003 63 217 0.0 0.0 0.00 0.00 0.00 66 1003.2
20260509183502 63 161 0.0 0.0 0.00 0.00 0.00 67 1003.2
20260509183002 63 212 0.0 0.0 0.00 0.00 0.00 66 1003.1
20260509182503 63 210 0.0 0.0 0.00 0.00 0.00 66 1003.2
20260509182002 63 187 0.0 0.0 0.00 0.00 0.00 68 1003.3
20260509181603 62 221 0.0 0.0 0.00 0.00 0.00 68 1003.2
20260509181100 63 184 0.0 0.0 0.00 0.00 0.00 67 1003.3
20260509180558 63 177 0.0 0.0 0.00 0.00 0.00 68 1003.3
20260509180101 63 199 0.0 0.0 0.00 0.00 0.00 68 1003.4
20260509175557 62 209 0.0 0.0 0.00 0.00 0.00 67 1003.4
20260509175057 63 212 0.0 0.0 0.00 0.00 0.00 66 1003.6
20260509174556 63 242 0.0 0.0 0.00 0.00 0.00 67 1003.6
20260509174059 63 277 0.0 0.0 0.00 0.00 0.00 67 1003.9
20260509173554 62 238 0.0 0.0 0.00 0.00 0.00 66 1004.0
20260509173054 62 240 0.0 0.0 0.00 0.00 0.00 66 1004.1
20260509172553 62 180 0.0 0.0 0.00 0.00 0.00 66 1004.0
20260509172055 62 208 0.0 0.0 0.00 0.00 0.00 66 1004.1
20260509171553 62 195 0.0 0.0 0.00 0.00 0.00 66 1004.0
20260509171052 62 198 0.0 0.0 0.00 0.00 0.00 65 1004.0
20260509170552 62 260 0.0 0.0 0.00 0.00 0.00 66 1004.1
20260509170053 62 247 0.0 0.0 0.00 0.00 0.00 67 1004.0
20260509165552 62 238 0.0 0.0 0.00 0.00 0.00 67 1004.0
20260509165050 62 264 0.0 0.0 0.00 0.00 0.00 68 1004.2
20260509164550 62 240 0.0 0.0 0.00 0.00 0.00 67 1004.3
20260509164050 62 199 0.0 0.0 0.00 0.00 0.00 67 1004.4
20260509163548 62 227 0.0 0.0 0.00 0.00 0.00 69 1004.4
20260509163046 61 202 0.0 0.0 0.00 0.00 0.00 69 1004.6
20260509162551 61 199 0.0 0.0 0.00 0.00 0.00 69 1004.6
20260509162047 61 246 0.0 0.0 0.00 0.00 0.00 69 1004.6
20260509161545 61 198 0.0 0.0 0.00 0.00 0.00 70 1004.6
20260509161043 60 171 0.0 0.0 0.00 0.00 0.00 70 1004.6
20260509160546 60 223 0.0 0.0 0.00 0.00 0.00 70 1004.6
20260509160043 60 200 0.0 0.0 0.00 0.00 0.00 69 1004.6
20260509155542 60 158 0.0 0.0 0.00 0.00 0.00 70 1004.6
20260509155042 59 231 0.0 0.0 0.00 0.00 0.00 71 1004.7
20260509154545 59 176 0.0 0.0 0.00 0.00 0.00 69 1004.8
20260509154045 59 212 0.0 0.0 0.00 0.00 0.00 70 1005.0